< < Back
Terminal Aerodrome Forecast


Current Version              Previous Versions:   1  2  3  4  5  6  7  8  9  

Terminal Aerodrome Forecast

877
FTUS42 KTAE 011100
TAFVLD
TAF
KVLD 011120Z 0112/0212 08003KT P6SM BKN040
     FM011600 08003KT P6SM SCT035
     FM020900 00000KT 4SM BR SCT003=



Latest METAR

108
SAUS70 KWBC 020800 RRC
MTRVLD
METAR KVLD 020753Z AUTO 00000KT 3SM BR CLR 19/18 A3001 RMK AO2 SLP169
T01940183


USA.gov is the U.S. government's official web portal to all federal, state and local government web resources and services.